DateTimeUTC,F1_A11,F1_S11,BsB_S11,BsG_S11,BsR_S11,BbsB_S11,BbsG_S11,BbsR_S11,BaB_A11,BaG_A11,BaR_A11,T_S11,U_S11,P_S11,T1_A11
2020-05-09T00:00:00Z,00000380,21000600,,,,,,,,,,24.1,00.0,0670.0,30.9
2020-05-09T00:01:00Z,00000380,21000600,,,,,,,,,,24.0,00.0,0670.0,30.9
2020-05-09T00:02:00Z,00000380,21000600,,,,,,,,,,24.1,00.0,0670.0,30.9
2020-05-09T00:03:00Z,00000380,61000600,,,,,,,,,,24.1,00.0,0670.0,30.9
2020-05-09T00:04:00Z,00000380,41000600,0005.69,0003.17,0002.31,0000.63,0000.42,0000.05,0000.46,0000.36,0000.30,23.9,00.0,0671.0,30.9
2020-05-09T00:05:00Z,00000380,01000600,0004.95,0003.58,0001.71,0000.85,0000.62,0000.16,0000.24,0000.33,0000.11,23.9,00.0,0671.1,30.9
2020-05-09T00:06:00Z,00000380,01000600,0005.72,0003.42,0001.93,0002.22,0000.54,0000.18,0000.42,0000.33,0000.23,23.8,00.0,0671.0,30.9
2020-05-09T00:07:00Z,00000380,01000600,0005.38,0002.99,0002.05,0000.86,0000.21,0000.22,0000.51,0000.33,0000.43,23.8,00.0,0671.0,30.9
2020-05-09T00:08:00Z,00000380,01000600,0005.68,0003.88,0001.82,0000.92,0000.06,-000.11,0000.33,0000.53,0000.15,23.8,00.0,0671.0,30.9
2020-05-09T00:09:00Z,00000380,01000600,0005.58,0003.50,0001.43,0000.13,0000.40,0000.03,0000.47,0000.29,0000.48,23.8,00.0,0671.0,30.9
2020-05-09T00:10:00Z,00000380,01000600,0003.58,0003.57,0001.46,0000.61,0000.42,-000.06,0000.26,0000.20,0000.14,23.8,00.0,0671.0,30.9
2020-05-09T00:11:00Z,00000380,01000600,0006.39,0003.11,0001.49,0000.68,0000.25,0000.35,0000.42,0000.47,0000.25,23.8,00.0,0671.0,30.9
2020-05-09T00:12:00Z,00000380,01000600,0006.12,0003.72,0001.80,0000.76,0000.18,0000.52,0000.44,0000.39,0000.20,23.8,00.0,0671.0,30.9
2020-05-09T00:13:00Z,00000380,01000600,0004.67,0003.38,0001.68,0000.44,0000.15,0000.38,0000.33,0000.30,0000.32,23.8,00.0,0671.0,30.9
2020-05-09T00:14:00Z,00000380,01000600,0004.98,0003.51,0001.88,0000.91,0000.52,0000.13,0000.46,0000.31,0000.29,23.8,00.0,0671.0,30.9
2020-05-09T00:15:00Z,00000380,01000600,0005.98,0003.23,0001.91,0000.74,0000.35,0000.22,0000.36,0000.48,0000.27,23.7,00.0,0671.0,30.9
2020-05-09T00:16:00Z,00000380,01000600,0005.90,0003.83,0001.35,0000.60,0000.53,0000.23,0000.35,0000.34,0000.36,23.7,00.0,0671.0,30.9
2020-05-09T00:17:00Z,00000380,01000600,0004.47,0002.98,0001.42,0001.18,0000.56,0000.26,0000.48,0000.25,0000.16,23.7,00.0,0671.0,30.9
2020-05-09T00:18:00Z,00000380,01000600,0006.47,0003.61,0001.85,0001.01,0000.45,0000.79,0000.37,0000.39,0000.29,23.7,00.0,0671.0,30.9
2020-05-09T00:19:00Z,00000380,01000600,0005.74,0002.86,0001.63,0000.47,0000.15,0000.09,0000.25,0000.36,0000.33,23.7,00.0,0670.9,30.9
2020-05-09T00:20:00Z,00000380,01000600,0005.28,0003.33,0001.26,0000.24,0000.23,-000.24,0000.31,0000.23,0000.30,23.7,00.0,0670.9,30.9
2020-05-09T00:21:00Z,00000380,01000600,0005.06,0003.15,0001.27,0001.41,0000.36,0000.17,0000.44,0000.57,0000.21,23.7,00.0,0670.9,30.9
2020-05-09T00:22:00Z,00000380,01000600,0004.96,0002.63,0002.10,-000.46,0000.25,0000.67,0000.27,0000.20,0000.17,23.6,00.0,0671.0,30.9
2020-05-09T00:23:00Z,00000380,01000600,0005.73,0002.97,0002.09,0000.39,0000.11,0000.54,0000.45,0000.10,0000.20,23.7,00.0,0671.0,30.9
2020-05-09T00:24:00Z,00000380,01000600,0005.49,0003.46,0001.56,0000.96,-000.15,0000.48,0000.35,0000.47,0000.41,23.7,00.0,0671.0,30.9
2020-05-09T00:25:00Z,00000380,01000600,0005.23,0003.57,0001.44,0000.88,0000.21,0000.55,0000.46,0000.45,0000.30,23.6,00.0,0671.0,30.9
2020-05-09T00:26:00Z,00000380,01000600,0005.32,0003.25,0001.59,-000.12,0000.51,0000.06,0000.16,0000.27,0000.15,23.6,00.0,0671.0,30.9
2020-05-09T00:27:00Z,00000380,01000600,0005.93,0003.20,0001.66,0001.16,0000.45,0000.18,0000.41,0000.32,0000.29,23.6,00.0,0671.0,30.9
2020-05-09T00:28:00Z,00000380,01000600,0005.84,0003.29,0001.63,0001.44,0000.11,0000.28,0000.34,0000.34,0000.25,23.6,00.0,0671.0,30.9
2020-05-09T00:29:00Z,00000380,01000600,0004.26,0003.47,0001.27,0000.88,0000.00,0000.08,0000.28,0000.24,0000.10,23.6,00.0,0671.0,30.9
2020-05-09T00:30:00Z,00000380,01000600,0006.43,0002.81,0001.93,0000.75,0000.45,0000.50,0000.34,0000.39,0000.28,23.6,00.0,0671.0,30.9
2020-05-09T00:31:00Z,00000380,01000600,0005.47,0003.33,0001.64,-000.11,0000.56,0000.26,0000.36,0000.37,0000.36,23.6,00.0,0670.9,30.9
2020-05-09T00:32:00Z,00000380,01000600,0005.81,0003.05,0001.24,-000.49,0000.75,-000.00,0000.46,0000.18,0000.19,23.6,00.0,0670.9,30.9
2020-05-09T00:33:00Z,00000380,01000600,0004.95,0002.97,0001.84,0000.73,0000.25,0000.33,0000.24,0000.49,0000.32,23.6,00.0,0670.9,30.9
2020-05-09T00:34:00Z,00000380,01000600,0005.32,0003.07,0002.00,-000.01,0000.40,0000.64,0000.38,0000.26,0000.24,23.6,00.0,0670.9,30.9
2020-05-09T00:35:00Z,00000380,01000600,0004.72,0003.29,0001.59,0000.89,0000.57,0000.37,0000.37,0000.21,0000.01,23.5,00.0,0670.9,30.9
2020-05-09T00:36:00Z,00000380,01000600,0005.00,0002.99,0001.67,0000.32,0000.13,0000.37,0000.25,0000.21,0000.25,23.5,00.0,0670.9,30.9
2020-05-09T00:37:00Z,00000380,01000600,0005.51,0003.49,0001.39,0000.26,0000.62,0000.18,0000.49,0000.47,0000.29,23.6,00.0,0670.9,30.9
2020-05-09T00:38:00Z,00000380,01000600,0004.67,0003.87,0002.43,0000.78,0000.58,0000.17,0000.22,0000.31,0000.34,23.6,00.0,0670.9,30.9
2020-05-09T00:39:00Z,00000380,01000600,0005.69,0003.11,0001.50,0001.08,0000.58,0000.54,0000.45,0000.46,0000.25,23.6,00.0,0670.9,30.9
2020-05-09T00:40:00Z,00000380,01000600,0004.47,0003.69,0001.70,0000.46,0000.26,0000.30,0000.52,0000.49,0000.23,23.6,00.0,0670.9,30.9
2020-05-09T00:41:00Z,00000380,01000600,0005.89,0003.17,0001.94,0000.11,0000.52,0000.10,0000.38,0000.16,0000.39,23.6,00.0,0670.9,30.9
2020-05-09T00:42:00Z,00000380,01000600,0006.16,0003.10,0001.60,0000.74,0000.46,0000.26,0000.35,0000.53,0000.17,23.6,00.0,0670.9,30.9
2020-05-09T00:43:00Z,00000380,01000600,0004.76,0003.24,0001.70,0000.89,0000.28,0000.16,0000.31,0000.20,0000.31,23.6,00.0,0670.9,30.9
2020-05-09T00:44:00Z,00000380,01000600,0004.68,0003.43,0001.67,0000.37,0000.25,0000.17,0000.33,0000.31,0000.23,23.5,00.0,0670.9,30.9
2020-05-09T00:45:00Z,00000380,01000600,0005.07,0003.02,0001.85,0001.31,-000.23,0000.37,0000.32,0000.21,0000.14,23.5,00.0,0671.0,30.9
2020-05-09T00:46:00Z,00000380,01000600,0005.40,0003.18,0001.80,0000.17,0000.47,0000.43,0000.37,0000.39,0000.29,23.5,00.0,0670.9,30.9
2020-05-09T00:47:00Z,00000380,01000600,0005.43,0003.64,0001.26,-000.06,0000.48,0000.17,0000.33,0000.34,0000.07,23.5,00.0,0671.0,30.9
2020-05-09T00:48:00Z,00000380,01000600,0005.68,0002.94,0001.70,0000.38,-000.04,0000.39,0000.26,0000.22,0000.33,23.5,00.0,0671.0,30.9
2020-05-09T00:49:00Z,00000380,01000600,0005.21,0002.88,0002.16,0001.15,-000.28,0000.44,0000.37,0000.48,0000.20,23.5,00.0,0671.0,30.9
2020-05-09T00:50:00Z,00000380,01000600,0006.14,0003.22,0001.78,0001.11,0000.36,0000.28,0000.28,0000.10,0000.30,23.5,00.0,0671.0,30.9
2020-05-09T00:51:00Z,00000380,01000600,0005.18,0003.16,0001.56,0000.35,0000.65,0000.60,0000.41,0000.37,0000.15,23.5,00.0,0671.0,30.9
2020-05-09T00:52:00Z,00000380,01000600,0006.36,0002.34,0002.29,0001.03,0000.33,0000.09,0000.34,0000.33,0000.39,23.5,00.0,0671.0,30.9
2020-05-09T00:53:00Z,00000380,01000600,0005.68,0003.49,0001.13,0000.76,0000.31,0000.27,0000.26,0000.24,0000.03,23.5,00.0,0671.0,30.9
2020-05-09T00:54:00Z,00000380,01000600,0005.75,0003.51,0002.06,0000.99,0000.16,0000.57,0000.38,0000.36,0000.30,23.5,00.0,0671.0,30.9
2020-05-09T00:55:00Z,00000380,01000600,0005.56,0003.46,0001.47,0000.36,0000.46,0000.60,0000.34,0000.34,0000.29,23.5,00.0,0671.0,30.9
2020-05-09T00:56:00Z,00000380,01000600,0005.23,0003.27,0001.53,0000.37,0000.39,0000.58,0000.31,0000.27,0000.22,23.5,00.0,0671.0,30.9
2020-05-09T00:57:00Z,00000380,41000600,,,,,,,,,,23.6,00.0,0670.9,30.9
2020-05-09T00:58:00Z,00000380,61000600,,,,,,,,,,23.7,00.0,0670.0,30.9
2020-05-09T00:59:00Z,00000380,21000600,,,,,,,,,,23.8,00.0,0670.0,30.9
2020-05-09T01:00:00Z,00000380,21000600,,,,,,,,,,23.8,00.0,0670.0,30.9
2020-05-09T01:01:00Z,00000380,21000600,,,,,,,,,,23.8,00.0,0670.0,30.9
2020-05-09T01:02:00Z,00000380,21000600,,,,,,,,,,23.8,00.0,0670.0,30.9
2020-05-09T01:03:00Z,00000380,61000600,,,,,,,,,,23.9,00.0,0670.0,30.9
2020-05-09T01:04:00Z,00000380,41000600,0004.88,0003.87,0002.41,-000.10,0000.37,0000.36,0000.37,0000.22,0000.22,23.7,00.0,0670.8,30.9
2020-05-09T01:05:00Z,00000380,01000600,0007.38,0003.15,0001.71,0001.04,0000.17,0000.12,0000.39,0000.40,0000.15,23.6,00.0,0670.9,30.9
2020-05-09T01:06:00Z,00000380,01000600,0005.06,0003.55,0001.89,0000.69,0000.34,0000.75,0000.46,0000.40,0000.40,23.6,00.0,0670.9,30.9
2020-05-09T01:07:00Z,00000380,01000600,0005.74,0003.37,0002.60,0000.72,0000.69,0000.74,0000.36,0000.30,0000.18,23.6,00.0,0670.9,30.9
2020-05-09T01:08:00Z,00000380,01000600,0005.20,0003.20,0002.36,0001.28,0000.39,0000.57,0000.20,0000.12,0000.16,23.6,00.0,0670.9,30.9
2020-05-09T01:09:00Z,00000380,01000600,0004.80,0003.50,0002.35,0000.34,0000.32,0000.20,0000.40,0000.47,0000.30,23.6,00.0,0670.9,30.9
2020-05-09T01:10:00Z,00000380,01000600,0004.82,0003.21,0002.31,0000.35,0000.83,0000.65,0000.42,0000.46,0000.28,23.6,00.0,0670.9,30.9
2020-05-09T01:11:00Z,00000380,01000600,0005.17,0003.51,0002.23,0000.29,0000.99,0000.75,0000.39,0000.39,0000.28,23.6,00.0,0670.9,30.9
2020-05-09T01:12:00Z,00000380,01000600,0005.63,0003.69,0002.27,0000.67,0000.65,0000.88,0000.41,0000.27,0000.38,23.6,00.0,0670.8,30.9
2020-05-09T01:13:00Z,00000380,01000600,0006.07,0003.46,0002.76,-000.04,0000.83,0000.68,0000.39,0000.54,0000.33,23.6,00.0,0670.8,30.9
2020-05-09T01:14:00Z,00000380,01000600,0004.60,0003.18,0002.10,0000.82,0000.89,0000.51,0000.33,0000.42,0000.24,23.6,00.0,0670.7,30.9
2020-05-09T01:15:00Z,00000380,01000600,0005.80,0003.50,0001.85,0000.14,0000.11,0000.37,0000.43,0000.33,0000.26,23.6,00.0,0670.7,30.9
2020-05-09T01:16:00Z,00000380,01000600,0005.54,0003.28,0001.49,-000.16,0000.54,0000.40,0000.31,0000.24,0000.19,23.6,00.0,0670.7,30.9
2020-05-09T01:17:00Z,00000380,01000600,0006.36,0003.52,0001.77,0000.79,0000.31,0000.36,0000.34,0000.29,0000.27,23.6,00.0,0670.7,30.9
2020-05-09T01:18:00Z,00000380,01000600,0004.72,0003.24,0002.03,0000.11,0000.16,0000.40,0000.23,0000.13,0000.00,23.6,00.0,0670.8,30.9
2020-05-09T01:19:00Z,00000380,01000600,0005.23,0003.00,0002.00,0000.18,0000.58,0000.49,0000.44,0000.37,0000.28,23.6,00.0,0670.8,30.9
2020-05-09T01:20:00Z,00000380,01000600,0005.11,0003.17,0002.51,0001.06,0000.31,0000.39,0000.17,0000.29,0000.07,23.6,00.0,0670.8,30.9
2020-05-09T01:21:00Z,00000380,01000600,0005.95,0002.94,0001.73,0001.67,0000.49,0000.04,0000.35,0000.31,0000.23,23.5,00.0,0670.8,30.9
2020-05-09T01:22:00Z,00000380,01000600,0005.68,0003.73,0001.69,0000.90,0000.60,0000.59,0000.31,0000.29,0000.30,23.5,00.0,0670.7,30.9
2020-05-09T01:23:00Z,00000380,01000600,0005.07,0003.86,0001.27,0000.07,0001.12,0000.25,0000.37,0000.34,0000.32,23.5,00.0,0670.7,30.9
2020-05-09T01:24:00Z,00000380,01000600,0004.67,0002.85,0001.78,-000.02,0000.58,0000.16,0000.28,0000.25,0000.12,23.5,00.0,0670.7,30.9
2020-05-09T01:25:00Z,00000380,01000600,0003.96,0002.91,0001.91,0000.50,0000.27,0000.10,0000.38,0000.27,0000.31,23.5,00.0,0670.7,30.9
2020-05-09T01:26:00Z,00000380,01000600,0004.81,0003.67,0001.59,0000.69,0000.79,0000.11,0000.30,0000.30,0000.21,23.5,00.0,0670.7,30.9
2020-05-09T01:27:00Z,00000380,01000600,0005.57,0003.52,0001.34,0000.17,0000.08,0000.05,0000.30,0000.31,0000.15,23.5,00.0,0670.7,30.9
2020-05-09T01:28:00Z,00000380,01000600,0006.34,0003.16,0001.94,0000.89,0000.66,0000.51,0000.44,0000.35,0000.43,23.5,00.0,0670.7,30.9
2020-05-09T01:29:00Z,00000380,01000600,0004.77,0003.04,0001.89,-000.08,0000.44,0000.41,0000.39,0000.26,0000.22,23.5,00.0,0670.7,30.9
2020-05-09T01:30:00Z,00000380,01000600,0005.87,0003.06,0001.98,-000.00,0000.25,0000.54,0000.19,0000.31,0000.16,23.5,00.0,0670.7,30.9
2020-05-09T01:31:00Z,00000380,01000600,0004.89,0003.45,0002.28,0000.65,0000.27,0000.84,0000.32,0000.38,0000.32,23.5,00.0,0670.7,30.9
2020-05-09T01:32:00Z,00000380,01000600,0004.61,0003.14,0002.51,0000.33,0000.49,0000.43,0000.41,0000.30,0000.11,23.5,00.0,0670.7,30.9
2020-05-09T01:33:00Z,00000380,01000600,0006.27,0003.66,0001.67,0000.88,0000.53,0000.33,0000.33,0000.34,0000.24,23.4,00.0,0670.7,30.9
2020-05-09T01:34:00Z,00000380,01000600,0005.76,0003.05,0002.25,0000.23,0000.47,0000.58,0000.50,0000.42,0000.27,23.4,00.0,0670.7,30.9
2020-05-09T01:35:00Z,00000380,01000600,0005.37,0004.29,0002.28,0000.66,0000.92,0000.56,0000.27,0000.27,0000.28,23.4,00.0,0670.8,30.9
2020-05-09T01:36:00Z,00000380,01000600,0005.36,0003.31,0002.46,0001.46,0000.70,0000.14,0000.36,0000.31,0000.19,23.4,00.0,0670.8,30.9
2020-05-09T01:37:00Z,00000380,01000600,0005.76,0003.26,0002.12,-000.01,0000.79,0000.32,0000.30,0000.35,0000.13,23.4,00.0,0670.8,30.9
2020-05-09T01:38:00Z,00000380,01000600,0005.11,0003.63,0001.77,0002.19,0000.73,0000.72,0000.21,0000.25,0000.35,23.4,00.0,0670.8,30.9
2020-05-09T01:39:00Z,00000380,01000600,0004.95,0003.02,0002.08,0000.63,0000.52,0000.46,0000.50,0000.33,0000.27,23.4,00.0,0670.8,30.9
2020-05-09T01:40:00Z,00000380,01000600,0005.67,0002.91,0001.19,0001.16,0000.73,0000.31,0000.27,0000.35,0000.38,23.4,00.0,0670.8,30.9
2020-05-09T01:41:00Z,00000380,01000600,0005.56,0003.14,0002.10,0000.40,0000.40,0000.58,0000.40,0000.30,0000.11,23.4,00.0,0670.7,30.9
2020-05-09T01:42:00Z,00000380,01000600,0005.03,0003.36,0002.16,0000.29,0000.50,0000.28,0000.34,0000.26,0000.22,23.4,00.0,0670.7,30.9
2020-05-09T01:43:00Z,00000380,01000600,0005.34,0003.56,0001.97,0001.15,0000.54,0000.75,0000.40,0000.32,0000.08,23.4,00.0,0670.7,30.9
2020-05-09T01:44:00Z,00000380,01000600,0003.79,0003.08,0002.13,0000.72,0000.75,0000.06,0000.31,0000.35,0000.43,23.4,00.0,0670.7,30.9
2020-05-09T01:45:00Z,00000380,01000600,0005.80,0003.01,0002.10,0001.36,0000.32,0000.49,0000.35,0000.29,0000.08,23.4,00.0,0670.7,30.9
2020-05-09T01:46:00Z,00000380,01000600,0005.41,0003.18,0002.04,0000.30,0001.06,0000.57,0000.43,0000.35,0000.42,23.4,00.0,0670.7,30.9
2020-05-09T01:47:00Z,00000380,01000600,0005.69,0004.02,0001.93,0000.84,0000.37,0000.78,0000.17,0000.36,0000.34,23.4,00.0,0670.7,30.9
2020-05-09T01:48:00Z,00000380,01000600,0005.68,0003.83,0001.35,0000.37,0000.16,0000.32,0000.42,0000.47,0000.21,23.4,00.0,0670.7,30.9
2020-05-09T01:49:00Z,00000380,01000600,0003.71,0003.89,0001.62,0001.24,0000.37,0000.16,0000.43,0000.16,0000.16,23.4,00.0,0670.7,30.9
2020-05-09T01:50:00Z,00000380,01000600,0005.11,0003.04,0001.79,0001.33,0000.73,0000.44,0000.44,0000.37,0000.29,23.4,00.0,0670.6,30.9
2020-05-09T01:51:00Z,00000380,01000600,0006.04,0003.54,0002.32,0001.00,0000.49,0000.35,0000.20,0000.37,0000.29,23.4,00.0,0670.6,30.9
2020-05-09T01:52:00Z,00000380,01000600,0006.62,0004.01,0002.00,0000.62,0000.67,0000.48,0000.41,0000.17,0000.15,23.3,00.0,0670.7,30.9
2020-05-09T01:53:00Z,00000380,01000600,0005.17,0003.21,0002.07,0000.40,0000.38,0000.23,0000.30,0000.29,0000.21,23.3,00.0,0670.7,30.9
2020-05-09T01:54:00Z,00000380,01000600,0005.98,0003.59,0002.32,0000.50,0000.23,0000.62,0000.40,0000.47,0000.29,23.3,00.0,0670.6,30.9
2020-05-09T01:55:00Z,00000380,01000600,0005.46,0003.89,0001.89,0000.82,0000.79,0000.64,0000.32,0000.33,0000.15,23.4,00.0,0670.6,30.9
2020-05-09T01:56:00Z,00000380,01000600,0005.64,0003.63,0001.84,0000.53,0000.76,0000.58,0000.34,0000.26,0000.39,23.4,00.0,0670.6,30.9
2020-05-09T01:57:00Z,00000380,41000600,,,,,,,,,,23.4,00.0,0670.6,30.9
2020-05-09T01:58:00Z,00000380,61000600,,,,,,,,,,23.5,00.0,0669.7,30.9
2020-05-09T01:59:00Z,00000380,21000600,,,,,,,,,,23.6,00.0,0669.6,30.9
2020-05-09T02:00:00Z,00000380,21000600,,,,,,,,,,23.6,00.0,0669.6,30.9
2020-05-09T02:01:00Z,00000380,21000600,,,,,,,,,,23.7,00.0,0669.6,30.9
2020-05-09T02:02:00Z,00000380,21000600,,,,,,,,,,23.7,00.0,0669.6,30.9
2020-05-09T02:03:00Z,00000380,61000600,,,,,,,,,,23.7,00.0,0669.6,30.9
2020-05-09T02:04:00Z,00000380,41000600,0005.38,0003.28,0002.10,0001.23,0000.54,0000.40,0000.43,0000.51,0000.22,23.5,00.0,0670.5,30.9
2020-05-09T02:05:00Z,00000380,01000600,0004.82,0003.54,0001.97,0001.05,0000.39,0000.56,0000.32,0000.23,0000.22,23.4,00.0,0670.6,30.9
2020-05-09T02:06:00Z,00000380,01000600,0005.28,0003.00,0002.47,0000.65,0001.17,0000.57,0000.30,0000.27,0000.22,23.4,00.0,0670.6,30.9
2020-05-09T02:07:00Z,00000380,01000600,0004.86,0003.54,0001.67,0000.30,0000.98,-000.08,0000.29,0000.44,0000.38,23.4,00.0,0670.5,30.9
2020-05-09T02:08:00Z,00000380,01000600,0004.84,0003.61,0001.81,0000.29,0000.62,0000.52,0000.44,0000.23,0000.06,23.4,00.0,0670.5,30.9
2020-05-09T02:09:00Z,00000380,01000600,0004.40,0003.06,0002.09,0000.40,0000.35,0000.48,0000.37,0000.37,0000.42,23.4,00.0,0670.6,30.9
2020-05-09T02:10:00Z,00000380,01000600,0003.35,0003.19,0001.83,0000.02,0000.56,0000.36,0000.39,0000.27,0000.09,23.3,00.0,0670.5,30.9
2020-05-09T02:11:00Z,00000380,01000600,0005.52,0003.42,0001.90,-000.18,0000.61,0000.17,0000.30,0000.34,0000.30,23.3,00.0,0670.5,30.9
2020-05-09T02:12:00Z,00000380,01000600,0005.02,0003.20,0001.97,0001.88,0000.83,0000.48,0000.51,0000.29,0000.36,23.3,00.0,0670.5,30.9
2020-05-09T02:13:00Z,00000380,01000600,0005.16,0003.31,0002.11,0000.88,0000.50,0000.37,0000.22,0000.31,0000.06,23.3,00.0,0670.5,30.9
2020-05-09T02:14:00Z,00000380,01000600,0004.29,0003.21,0002.36,0000.52,0000.77,0000.39,0000.42,0000.31,0000.34,23.3,00.0,0670.6,30.9
2020-05-09T02:15:00Z,00000380,01000600,0005.29,0003.52,0002.45,0000.50,0000.60,0000.70,0000.23,0000.36,0000.20,23.3,00.0,0670.6,30.9
2020-05-09T02:16:00Z,00000380,01000600,0004.95,0003.21,0002.24,0000.07,-000.03,0000.31,0000.36,0000.27,0000.28,23.3,00.0,0670.5,30.9
2020-05-09T02:17:00Z,00000380,01000600,0005.12,0003.19,0001.96,0000.94,0000.83,0000.20,0000.37,0000.37,0000.23,23.3,00.0,0670.5,30.9
2020-05-09T02:18:00Z,00000380,01000600,0004.02,0003.74,0002.36,0000.26,0000.68,0000.12,0000.31,0000.31,0000.13,23.3,00.0,0670.5,30.9
2020-05-09T02:19:00Z,00000380,01000600,0005.02,0003.23,0002.68,0001.48,0000.97,0000.01,0000.47,0000.22,0000.17,23.3,00.0,0670.5,30.9
2020-05-09T02:20:00Z,00000380,01000600,0004.47,0003.27,0002.32,0000.10,0000.73,0000.36,0000.29,0000.47,0000.38,23.3,00.0,0670.5,30.9
2020-05-09T02:21:00Z,00000380,01000600,0004.30,0003.62,0001.97,0000.83,0000.47,0000.42,0000.46,0000.27,0000.30,23.2,00.0,0670.5,30.9
2020-05-09T02:22:00Z,00000380,01000600,0006.51,0003.75,0002.09,0000.43,0000.79,0000.60,0000.32,0000.34,0000.10,23.2,00.0,0670.5,30.9
2020-05-09T02:23:00Z,00000380,01000600,0005.34,0003.48,0002.25,-000.04,0000.70,0000.64,0000.40,0000.50,0000.42,23.2,00.0,0670.5,30.9
2020-05-09T02:24:00Z,00000380,01000600,0005.09,0003.20,0002.22,0000.34,0000.46,0000.65,0000.44,0000.28,0000.23,23.2,00.0,0670.5,30.9
2020-05-09T02:25:00Z,00000380,01000600,0005.52,0004.23,0001.99,0000.99,0001.18,0000.69,0000.45,0000.43,0000.24,23.2,00.0,0670.5,30.9
2020-05-09T02:26:00Z,00000380,01000600,0006.06,0003.98,0002.05,0001.74,0000.21,0000.27,0000.37,0000.35,0000.35,23.2,00.0,0670.5,30.9
2020-05-09T02:27:00Z,00000380,01000600,0005.15,0003.66,0002.14,0001.69,0000.55,0000.78,0000.42,0000.33,0000.27,23.2,00.0,0670.5,30.9
2020-05-09T02:28:00Z,00000380,01000600,0005.34,0003.67,0002.78,0001.14,0000.35,0000.63,0000.45,0000.42,0000.35,23.2,00.0,0670.4,30.9
2020-05-09T02:29:00Z,00000380,01000600,0006.19,0003.49,0002.00,-000.07,0000.92,0000.39,0000.37,0000.37,0000.34,23.2,00.0,0670.5,30.8
2020-05-09T02:30:00Z,00000380,01000600,0005.65,0003.84,0002.26,0001.29,0001.01,0000.40,0000.31,0000.31,0000.20,23.2,00.0,0670.5,30.9
2020-05-09T02:31:00Z,00000380,01000600,0006.32,0003.82,0002.58,0001.01,0000.68,0000.30,0000.35,0000.16,0000.09,23.2,00.0,0670.5,30.9
2020-05-09T02:32:00Z,00000380,01000600,0005.54,0003.77,0001.94,0000.50,0000.94,0000.63,0000.42,0000.41,0000.36,23.2,00.0,0670.5,30.9
2020-05-09T02:33:00Z,00000380,01000600,0004.80,0003.90,0002.05,0000.65,0000.44,0000.39,0000.33,0000.39,0000.21,23.2,00.0,0670.5,30.9
2020-05-09T02:34:00Z,00000380,01000600,0005.15,0003.60,0001.73,0001.64,0000.27,0000.13,0000.42,0000.34,0000.31,23.2,00.0,0670.5,30.9
2020-05-09T02:35:00Z,00000380,01000600,0004.95,0003.49,0002.31,0000.25,0000.43,0000.46,0000.44,0000.35,0000.34,23.2,00.0,0670.4,30.9
2020-05-09T02:36:00Z,00000380,01000600,0005.09,0003.33,0002.45,-000.37,0000.71,0000.20,0000.49,0000.51,0000.21,23.2,00.0,0670.4,30.9
2020-05-09T02:37:00Z,00000380,01000600,0006.10,0003.93,0001.99,0001.15,0000.05,0000.34,0000.37,0000.48,0000.47,23.2,00.0,0670.4,30.9
2020-05-09T02:38:00Z,00000380,01000600,0005.47,0003.77,0002.57,0000.45,0000.63,0000.51,0000.39,0000.36,0000.16,23.2,00.0,0670.4,30.9
2020-05-09T02:39:00Z,00000380,01000600,0006.69,0004.00,0002.06,0000.56,0000.44,0000.44,0000.30,0000.30,0000.30,23.2,00.0,0670.5,30.9
2020-05-09T02:40:00Z,00000380,01000600,0005.16,0003.08,0002.65,0000.45,0000.63,0000.27,0000.35,0000.13,0000.08,23.2,00.0,0670.5,30.9
2020-05-09T02:41:00Z,00000380,01000600,0006.24,0003.39,0002.13,0000.55,0000.57,0000.72,0000.32,0000.35,0000.34,23.2,00.0,0670.5,30.9
2020-05-09T02:42:00Z,00000380,01000600,0007.09,0002.93,0002.08,0000.33,0000.27,0000.27,0000.38,0000.35,0000.24,23.2,00.0,0670.5,30.9
2020-05-09T02:43:00Z,00000380,01000600,0004.96,0003.26,0001.95,0000.62,0000.90,0000.65,0000.31,0000.38,0000.17,23.2,00.0,0670.5,30.9
2020-05-09T02:44:00Z,00000380,01000600,0005.69,0004.17,0002.47,0000.16,0000.52,0000.53,0000.38,0000.29,0000.23,23.2,00.0,0670.5,30.9
2020-05-09T02:45:00Z,00000380,01000600,0005.41,0003.70,0002.38,0000.67,0000.27,0000.78,0000.36,0000.33,0000.28,23.2,00.0,0670.5,30.9
2020-05-09T02:46:00Z,00000380,01000600,0006.73,0004.06,0001.67,0000.37,0000.85,0000.37,0000.33,0000.36,0000.15,23.2,00.0,0670.5,30.9
2020-05-09T02:47:00Z,00000380,01000600,0005.33,0003.87,0002.27,0000.81,0000.86,0000.20,0000.44,0000.37,0000.29,23.2,00.0,0670.5,30.9
2020-05-09T02:48:00Z,00000380,01000600,0005.53,0003.96,0002.40,0000.14,0000.82,0000.47,0000.35,0000.27,0000.22,23.2,00.0,0670.5,30.9
2020-05-09T02:49:00Z,00000380,01000600,0005.91,0003.86,0002.04,0000.69,0000.97,0000.49,0000.31,0000.33,0000.33,23.2,00.0,0670.5,30.9
2020-05-09T02:50:00Z,00000380,01000600,0005.28,0003.31,0002.20,0000.34,0000.39,0000.37,0000.44,0000.33,0000.32,23.2,00.0,0670.5,30.9
2020-05-09T02:51:00Z,00000380,01000600,0006.17,0003.88,0002.52,0000.52,0000.64,0000.36,0000.32,0000.34,0000.17,23.2,00.0,0670.5,30.9
2020-05-09T02:52:00Z,00000380,01000600,0005.15,0003.24,0002.51,0000.08,0000.55,0000.30,0000.48,0000.39,0000.35,23.2,00.0,0670.5,30.9
2020-05-09T02:53:00Z,00000380,01000600,0004.78,0003.51,0002.04,0000.94,0000.94,0000.56,0000.44,0000.56,0000.30,23.2,00.0,0670.5,30.9
2020-05-09T02:54:00Z,00000380,01000600,0006.00,0004.47,0001.70,0001.03,0000.41,0000.27,0000.42,0000.27,0000.32,23.2,00.0,0670.5,30.9
2020-05-09T02:55:00Z,00000380,01000600,0005.42,0003.87,0002.46,0000.99,0000.68,0000.60,0000.34,0000.34,0000.16,23.2,00.0,0670.5,30.9
2020-05-09T02:56:00Z,00000380,01000600,0006.11,0003.42,0001.90,0000.31,0000.49,0000.37,0000.51,0000.44,0000.40,23.2,00.0,0670.5,30.9
2020-05-09T02:57:00Z,00000380,41000600,,,,,,,,,,23.2,00.0,0670.3,30.9
2020-05-09T02:58:00Z,00000380,61000600,,,,,,,,,,23.3,00.0,0669.4,30.9
2020-05-09T02:59:00Z,00000380,21000600,,,,,,,,,,23.4,00.0,0669.4,30.9
2020-05-09T03:00:00Z,00000380,21000600,,,,,,,,,,23.5,00.0,0669.4,30.9
2020-05-09T03:01:00Z,00000380,21000600,,,,,,,,,,23.5,00.0,0669.4,30.9
2020-05-09T03:02:00Z,00000380,21000600,,,,,,,,,,23.5,00.0,0669.4,30.9
2020-05-09T03:03:00Z,00000380,61000600,,,,,,,,,,23.5,00.0,0669.4,30.9
2020-05-09T03:04:00Z,00000380,41000600,0007.38,0004.73,0002.06,0001.12,0000.57,0000.65,0000.60,0000.38,0000.44,23.3,00.0,0670.3,30.9
2020-05-09T03:05:00Z,00000380,01000600,0006.14,0004.01,0002.54,0001.70,0000.45,0000.72,0000.35,0000.34,0000.09,23.2,00.0,0670.4,30.9
2020-05-09T03:06:00Z,00000380,01000600,0006.47,0004.46,0002.34,0000.92,-000.28,0000.33,0000.26,0000.27,0000.38,23.2,00.0,0670.4,30.9
2020-05-09T03:07:00Z,00000380,01000600,0006.48,0004.08,0002.64,0001.10,0000.55,0000.84,0000.47,0000.31,0000.14,23.2,00.0,0670.4,30.9
2020-05-09T03:08:00Z,00000380,01000600,0006.83,0003.98,0001.79,0001.69,0000.62,0000.47,0000.53,0000.34,0000.43,23.2,00.0,0670.4,30.9
2020-05-09T03:09:00Z,00000380,01000600,0006.58,0004.20,0002.38,0000.41,0000.65,0000.62,0000.32,0000.45,0000.24,23.2,00.0,0670.4,30.9
2020-05-09T03:10:00Z,00000380,01000600,0005.84,0003.38,0001.94,0001.05,0000.71,0000.39,0000.36,0000.28,0000.23,23.2,00.0,0670.4,30.9